User: anonymous   Login
Location: Unspecified
(0.0000°N, 0.0000°E)
Time: 20:02:24
(UTC+00:00)
Language:

USA 270 - Orbit

View from above orbital plane
View from above orbital plane
View from above satellite
View from above satellite

Ground track
Ground track

The orbit is defined by the following mean orbital elements,

1 41744U          26144.36776939 +.00000000 +00000-0 +00000-0 0 00000
2 41744   4.1376  77.4847 0008631 334.8808 145.8544  1.00279232    09
Epoch (UTC): 24 May 2026 08:49:35
Eccentricity: 0.0008631
inclination: 4.1376°
perigee height: 35748 km
apogee height: 35821 km
right ascension of ascending node: 77.4847°
argument of perigee: 334.8808°
revolutions per day: 1.00279232
mean anomaly at epoch: 145.8544°

The dashed part of the orbit path shows where the satellite is in the earth's shadow,  

DLR